Location: Moena
(46.3667°N, 11.6500°E)
Time: 12:32:03
(UTC+00:00)

Cosmos 2333 Rocket - Pass Details

Date: 23 June 2021
Orbit: 841 x 861 km, 70.8° (Epoch: 26 July)

Event Time Altitude Azimuth Distance (km) Brightness Sun altitude
Rises 21:24:17 0° 239° (WSW) 3,424 5.3 -15.8°
Reaches altitude 10° 21:27:03 10° 250° (WSW) 2,489 4.7 -16.0°
Maximum altitude 21:32:01 30° 310° (NW) 1,497 4.2 -16.4°
Drops below altitude 10° 21:37:00 10° 11° (N) 2,490 5.5 -16.7°
Sets 21:39:47 0° 22° (NNE) 3,426 6.1 -16.9°
